This is the latest recevied weather packets stored in our database for station/object IU2EVW-13. If no packets are shown the sender has not sent any weather packets the latest 10 day(s).
| Time | Temp. | Humidity | Pressure | Rain* | Wind** | Luminosity | Snow |
|---|---|---|---|---|---|---|---|
| 1777515615 | 10.56° C | 83% | 1023.2 hPa | - | - | - | - |
| 1777514414 | 10.56° C | 83% | 1023.2 hPa | - | - | - | - |
| 1777513212 | 10.56° C | 84% | 1023.2 hPa | - | - | - | - |
| 1777512011 | 11.11° C | 83% | 1023.2 hPa | - | - | - | - |
| 1777510809 | 11.11° C | 83% | 1023.1 hPa | - | - | - | - |
| 1777509608 | 11.11° C | 81% | 1023.1 hPa | - | - | - | - |
| 1777508407 | 11.67° C | 79% | 1022.9 hPa | - | - | - | - |
| 1777507205 | 11.11° C | 79% | 1022.8 hPa | - | - | - | - |
| 1777506004 | 11.67° C | 79% | 1022.6 hPa | - | - | - | - |
| 1777504803 | 11.67° C | 79% | 1022.5 hPa | - | - | - | - |
| 1777503602 | 11.11° C | 79% | 1022.3 hPa | - | - | - | - |
| 1777502400 | 11.67° C | 76% | 1022.2 hPa | - | - | - | - |
| 1777501199 | 11.67° C | 75% | 1021.9 hPa | - | - | - | - |
| 1777499997 | 11.67° C | 75% | 1021.5 hPa | - | - | - | - |
| 1777498796 | 11.67° C | 75% | 1021.4 hPa | - | - | - | - |
| 1777497595 | 11.11° C | 77% | 1021.3 hPa | - | - | - | - |
| 1777496393 | 11.67° C | 78% | 1021 hPa | - | - | - | - |
| 1777495192 | 12.22° C | 75% | 1020.9 hPa | - | - | - | - |
| 1777493991 | 11.67° C | 77% | 1020.7 hPa | - | - | - | - |
| 1777492789 | 12.22° C | 77% | 1020.6 hPa | - | - | - | - |
| 1777491588 | 12.22° C | 78% | 1020.4 hPa | - | - | - | - |
| 1777490386 | 12.22° C | 74% | 1020.2 hPa | - | - | - | - |
| 1777489185 | 12.22° C | 76% | 1020 hPa | - | - | - | - |
| 1777487983 | 12.78° C | 68% | 1019.7 hPa | - | - | - | - |
| 1777486782 | 13.33° C | 68% | 1019.4 hPa | - | - | - | - |
* Rain since midnight (hover to see other rain measurements)
** Current wind speed in m/s (hover to see current wind gust speed)